Reflectivity
-14 6 -20 -8 -20 -20 -20 -20 -20 -20 -20 -20 -20 -20 -20 -20 -20 -18 14 16 -1 -20 -20 -14 -5 -0 -20 -20 -20 -20 -20 -20 -20 -20 -20 -20 -20 -20 -20 -20 -20 -20 -20
-20 -18 3 -5 -20 -20 -20 -20 -20 -20 -20 -20 -20 -20 -20 -20 -20 -20 -20 -20 -20 -20 -20 -20 -20 -20 -20 -20 -20 -2 -20 -20 -20 -20 -20 -20 -20 -20 -20 -20 -20 -20 -20
-20 -20 5 7 -20 -20 -20 -20 -20 -20 -20 -20 -20 -20 -20 -20 -20 -20 -20 -20 -20 -3 -20 -20 -20 -20 -20 -20 -20 -20 -20 -20 -20 -20 -20 -20 -20 -20 -20 -20 -20 -20 -20
-20 -20 -8 -6 1 -20 -20 -20 -20 -20 -20 -20 -20 -20 -20 -20 -20 -20 -20 -20 -20 -20 -11 -20 -20 -20 -20 -20 -20 -20 -20 -20 -20 -20 -20 -20 -20 -20 -20 -20 -20 -20 -20
-20 -4 8 -20 -12 -20 -20 -20 -20 8 -11 8 5 -20 -17 6 11 15 -10 -20 -20 -20 -20 -2 -17 -20 -20 -20 -20 -20 -20 -20 -20 -20 -20 -20 -20 -20 -20 -20 -20 -20 -20
9 10 -20 -20 -5 -20 -20 6 2 -9 4 -20 -20 -20 -20 -7 -20 -20 -20 -20 -20 -20 -20 -20 -20 -20 -11 -20 -20 -20 -20 -20 -0 -20 -20 -20 -20 -20 -20 -20 -20 -20 -20
10 12 7 15 -4 -20 -20 -20 -20 -20 -20 -20 -20 -20 -20 -20 -20 -20 -20 -20 -20 -20 -20 -20 -6 -7 -20 -11 -20 6 -12 -20 -20 -20 -20 -20 -20 -20 -20 -20 -20 -20 4
11 9 6 -20 -20 -20 -20 -20 -20 -20 -20 -20 -20 -20 -20 -20 -20 -20 -20 -20 -20 -20 -20 -20 -20 -20 -20 12 -19 13 -11 -9 -20 -16 -20 -20 -20 -20 -20 -20 -20 -20 -20
-14 -20 -20 -20 -20 -20 -20 -20 -20 -20 -20 -20 -20 -20 -20 -20 -20 -20 -20 -20 -20 -20 -20 -20 -20 -20 -20 -20 -20 -13 -7 -16 -15 -18 -20 -20 -20 -20 -20 -20 -20 -20 -20
-20 -20 -20 -20 -20 -20 -20 -20 -20 -20 -20 -20 -20 -20 -20 -20 -20 -20 -20 -20 -20 -20 -20 -20 -20 -20 -20 -20 -20 -20 -20 -20 -19 7 15 12 -20 -20 -0 13 5 -19 -20
-20 -20 -20 -20 -20 -20 -20 -20 -20 -20 -20 -20 -20 -20 -20 -20 -20 -20 -20 -20 -20 -20 -20 -20 -20 -20 -20 -20 -20 -20 -20 -20 -3 12 9 15 1 -20 11 4 8 12 12
-20 -20 -20 -20 -20 -20 -20 -20 -20 -20 -20 -20 -20 -20 -20 -20 -20 -20 -20 -20 -20 -20 -20 -20 -20 -20 -20 -20 -20 -20 -20 -20 -20 -20 -16 -10 -10 -1 18 4 18 -9 -17
-20 -20 -20 -20 -20 -20 -20 -20 -20 -20 -20 -20 -20 -20 -20 -20 -20 -20 -20 -20 -20 -20 -20 -20 -20 -20 -20 -20 -20 -20 -20 -20 -20 -20 -20 -20 4 9 9 12 -12 -1 0
-20 -20 -20 -20 -20 -20 -20 -20 -20 -20 -20 -20 -20 -20 -20 -20 -20 -20 -20 -20 -20 -20 -20 -20 -20 -20 -20 -20 -20 -20 -20 -20 -20 -20 -20 -20 -18 3 -20 -20 -20 -20 -20
-20 -20 -20 -20 -20 -20 -20 -20 -20 -20 -20 -20 -20 -20 -20 -20 -20 -20 -20 -20 -20 -20 -20 -20 -20 -20 -20 -20 -20 -20 -20 -20 -20 -20 -20 -20 -20 -20 -20 -20 -20 -20 -20
-20 -20 -20 -20 -20 -20 -20 -20 -20 -20 -20 -20 -20 -20 -20 -20 -20 -20 -20 -20 -20 -20 -20 -20 -20 -20 -20 -20 -20 -20 -20 -20 -20 -20 -20 -20 -20 -20 -20 -20 -20 -20 -20
-20 -20 -20 -20 -20 -20 -20 -20 -20 -20 -20 -20 -20 -20 -20 -20 -20 -20 -20 -20 -20 -20 -20 -20 -20 -20 -20 -20 -20 -20 -20 -20 -20 -20 -20 -20 -20 -20 -20 -20 -20 -20 -20
-20 -20 -20 -20 -20 -20 -20 -20 -20 -20 -20 -20 -20 -20 -20 -20 -20 -20 -20 -20 -20 -20 -20 -20 -20 -20 -20 -20 -20 -20 -20 -20 -20 -20 -20 -20 -20 -20 -20 -20 -20 -20 -20
-20 -20 -20 -20 -20 -20 -20 -20 -20 -20 -20 -20 -20 -20 -20 -20 -20 -20 -20 -20 -20 -20 -20 -20 -20 -20 -20 -20 -20 -20 -20 -20 -20 -20 -20 -20 -20 -20 -20 -20 -20 -20 -20
-20 -20 -20 -20 -20 -20 -20 -20 -20 -20 -20 -20 -20 -20 -20 -20 -20 -20 -20 -20 -20 -20 -20 -20 -20 -20 -20 -17 -20 -20 -20 -20 -20 -20 -20 -20 -20 -20 -20 -20 -20 -20 -20
-20 -20 -20 -20 -20 -20 -20 -20 -20 -20 -20 -20 -20 -20 -20 -20 -20 -20 -20 -20 -20 -20 -20 -20 -20 -20 -20 -20 -20 -20 -20 -20 -20 -20 -20 -20 -20 -20 -20 -20 -20 4 -0
-20 -20 -20 -20 -20 -20 -20 -20 -20 -20 -20 -20 -20 -20 -20 -20 -20 -20 -20 -20 -20 -20 -20 -20 -20 -20 -20 -20 -20 -13 -20 -20 -20 -20 -20 -20 -20 -20 -20 -20 -20 -4 -18
-20 -20 -20 -20 -20 -20 -20 -20 -20 -20 -20 -20 -20 -20 -20 -20 -20 -20 -20 -20 -20 -20 -20 -20 -20 -20 -13 -20 -20 -1 -15 -20 -20 -20 -20 -20 -20 -20 -14 -20 -18 -14 -20
-20 -20 -20 -20 -20 -20 -20 -20 -20 -20 -20 -20 -20 -20 -20 -20 -20 -20 -20 -20 -20 -20 -20 -20 -20 -20 -8 0 -20 8 -17 -9 -20 -20 -20 -20 -20 -20 -3 -20 -20 -20 -20
-20 -20 -20 -20 -20 -20 -20 -20 -20 -20 -20 -20 -20 -20 -20 -20 -20 -20 -20 -20 -20 -20 -20 -20 -20 -20 -14 -16 -20 0 -13 -19 11 -16 -20 -20 -19 -20 -20 -19 -20 -20 -20
-20 -20 -20 -20 -20 -20 -20 -20 -20 -20 -20 -20 -20 -20 -20 -20 -20 -20 -20 -20 -20 -20 -20 -20 -20 -20 -20 -20 -20 -20 -2 -15 -18 11 -13 -13 -17 -20 -20 2 -20 -20 -20
Wind_Speed
9 12 10 10 10 9 10 10 9 8 8 7 7 5 4 5 6 6 7 7 4 3 5 6 5 4 3 2 1 2 3 3 4 4 4 4 5 4 4 5 6 3 6
13 12 10 10 10 9 10 9 9 7 7 6 6 5 4 4 4 5 6 7 8 0 2 3 3 3 3 2 3 2 1 1 2 2 2 3 2 3 3 3 4 7 4
13 12 12 10 10 9 9 9 7 6 6 5 4 3 3 3 4 5 6 7 7 6 2 0 1 2 3 2 2 0 1 1 1 1 3 6 3 2 3 3 4 4 4
12 11 11 10 12 10 9 7 6 5 4 3 3 3 3 3 4 4 4 6 7 8 2 2 2 2 1 2 2 3 3 3 3 4 8 5 5 2 5 5 5 5 4
12 9 11 8 9 10 8 6 5 3 3 2 1 2 4 5 6 6 6 5 5 6 6 6 7 6 6 5 6 7 7 6 5 7 8 6 6 2 5 8 8 7 6
11 9 11 7 9 8 7 6 6 5 6 8 7 7 8 8 8 8 7 7 7 7 8 8 8 9 9 9 8 8 9 8 6 10 7 7 8 6 8 8 10 10 9
11 10 10 9 10 10 9 9 8 8 8 8 8 9 9 9 8 8 7 6 7 7 8 9 10 10 11 10 11 11 10 8 10 9 8 8 9 8 10 11 11 13 13
10 9 10 11 11 12 11 10 9 8 8 9 8 8 9 8 8 7 7 8 8 8 9 9 9 10 12 12 11 11 10 9 10 11 10 9 7 9 12 13 13 14 14
8 9 7 8 10 12 12 11 10 10 9 9 9 8 8 8 9 9 9 10 11 11 11 11 10 11 11 11 11 10 10 9 12 9 10 8 8 11 14 14 15 15 15
7 7 7 6 6 6 7 10 10 9 8 8 9 10 8 4 6 8 8 10 10 10 10 10 10 10 10 11 10 9 8 9 13 12 9 8 4 11 15 16 16 17 17
6 6 6 5 5 5 5 5 4 6 4 2 3 5 5 5 6 7 4 8 9 9 9 9 9 10 11 13 7 7 10 9 10 8 7 6 7 14 17 16 16 16 16
7 6 5 5 5 4 3 4 4 4 4 5 5 7 5 6 6 7 4 5 5 6 7 8 9 11 11 8 7 7 7 9 8 9 8 9 9 14 15 14 13 14 14
6 5 4 5 4 4 3 2 2 2 3 3 6 6 6 5 5 5 5 5 6 4 5 7 7 6 9 8 8 8 9 9 8 7 8 5 12 12 13 12 11 11 11
6 5 5 4 4 4 2 2 2 3 3 3 4 7 5 4 5 6 5 7 6 5 8 7 6 8 9 9 9 10 10 9 7 7 8 5 11 11 12 12 12 11 12
6 6 5 4 3 3 2 2 2 3 3 4 4 6 5 5 6 6 6 6 7 7 8 8 8 8 8 9 8 8 9 9 9 6 6 5 6 10 11 11 11 12 14
7 6 6 4 3 2 2 3 3 3 3 4 4 5 6 5 5 5 6 6 6 6 7 8 8 8 8 8 8 8 8 8 8 8 6 6 2 7 8 9 11 13 14
7 6 6 5 4 4 3 2 2 2 3 3 3 5 6 5 6 6 5 5 5 6 8 7 8 8 8 7 9 8 7 7 6 7 6 6 4 4 3 7 9 10 11
6 7 6 5 6 5 3 2 1 2 2 2 3 3 5 6 6 6 5 5 6 6 6 7 7 7 8 7 7 7 6 6 7 6 4 4 3 4 1 7 9 10 12
8 7 8 8 7 5 3 2 1 0 0 1 2 2 4 4 6 6 5 5 7 6 6 6 7 7 7 7 8 8 6 6 5 2 3 2 3 3 4 3 4 6 11
7 7 7 7 6 5 3 2 2 2 1 0 2 2 3 3 5 5 5 6 6 5 5 6 8 8 7 7 9 7 3 3 1 1 3 4 4 5 5 5 5 7 10
7 8 9 8 7 5 3 2 2 1 1 2 2 3 4 4 4 4 4 5 5 5 5 6 7 8 6 7 7 6 1 3 4 2 3 3 5 5 5 5 4 3 4
6 8 8 7 7 5 2 1 1 1 2 3 3 4 4 5 4 5 5 5 5 5 6 5 6 6 5 5 5 5 3 3 2 1 1 2 5 4 5 5 5 5 4
5 6 7 7 6 5 4 3 2 3 3 4 4 4 4 5 5 5 5 5 5 5 4 5 5 6 5 6 5 4 4 3 8 3 2 4 5 4 3 4 5 5 6
4 5 6 6 6 4 5 4 5 4 5 4 5 5 6 7 7 6 6 5 5 4 5 5 3 4 4 5 5 1 2 3 3 5 2 4 4 5 4 4 3 5 6
5 5 6 6 6 5 5 6 5 6 6 5 6 9 8 7 8 7 7 6 5 4 5 6 5 4 4 4 5 4 4 3 6 6 8 6 6 5 4 4 2 2 3
4 4 4 5 5 5 6 7 8 9 8 8 8 8 7 5 5 7 7 7 6 6 6 5 5 5 5 5 5 5 5 4 4 6 7 9 9 7 8 1 2 2 2
Wind_Direction
155 139 148 143 133 124 115 106 100 97 97 96 98 89 63 52 43 31 29 36 19 25 39 47 57 68 46 29 20 95 73 63 62 64 50 41 31 52 35 20 337 302 27
147 145 150 143 134 124 115 109 104 103 104 100 95 94 77 42 25 19 15 12 8 155 58 58 49 41 31 23 353 181 91 78 94 83 42 176 103 10 11 3 345 8 345
145 139 160 146 134 128 119 113 111 107 101 96 87 73 58 13 10 1 3 8 4 359 260 138 50 30 8 350 359 262 260 284 285 264 282 279 326 20 321 318 317 316 319
142 149 147 147 141 132 125 119 114 106 96 82 59 28 4 354 341 342 353 5 1 353 283 273 285 301 295 282 272 273 261 253 259 268 259 285 297 120 295 283 280 284 291
142 146 118 148 141 133 130 122 108 75 69 75 36 338 328 325 323 343 359 350 345 341 332 312 280 275 274 264 260 264 265 263 245 256 265 272 282 279 293 275 260 249 262
137 139 126 139 119 119 117 107 89 71 53 51 40 28 20 20 22 18 18 10 346 324 312 305 300 288 274 268 266 265 263 262 245 258 261 260 257 286 276 277 263 264 258
137 133 132 114 107 101 94 83 72 62 56 50 40 35 29 17 15 10 10 5 355 343 332 320 305 290 284 278 268 265 258 252 262 268 261 256 258 258 267 268 265 264 258
136 123 116 85 84 83 76 71 67 64 61 57 49 42 43 37 32 27 18 8 5 5 3 358 350 343 323 289 272 269 262 248 253 257 258 261 266 250 261 267 268 270 270
119 121 114 111 105 87 72 68 66 64 60 53 46 35 30 25 16 14 9 8 358 355 350 347 343 344 342 338 330 305 267 250 263 268 264 260 213 241 262 266 268 268 269
112 110 107 107 104 98 98 68 68 63 57 47 39 24 7 324 15 25 352 15 352 349 348 344 340 337 334 324 323 323 313 272 255 258 255 259 243 259 263 265 265 263 263
117 110 106 102 92 87 71 80 119 76 59 16 18 30 311 349 341 328 27 347 346 343 338 333 328 324 316 277 266 301 296 265 265 261 260 261 243 268 274 277 280 282 279
143 121 113 101 90 82 72 44 43 31 12 10 2 349 340 336 350 318 302 321 315 335 304 322 315 306 271 301 294 261 269 284 282 288 295 353 303 277 279 284 280 281 283
141 137 129 119 101 87 79 39 36 19 359 359 360 352 345 337 346 345 330 334 329 338 325 321 316 319 314 302 292 286 284 281 274 273 245 256 279 282 286 298 301 303 303
168 157 151 138 121 93 74 56 27 16 352 356 3 1 351 348 345 342 336 329 325 330 321 322 318 313 306 300 297 290 282 276 276 279 281 170 282 293 296 297 297 299 298
185 181 168 155 133 98 63 52 18 10 6 14 12 8 356 350 346 337 337 328 326 329 323 319 314 314 308 309 300 294 290 282 278 276 277 160 255 281 286 289 294 298 300
193 190 180 174 141 130 80 32 17 4 16 11 16 11 1 355 346 341 331 332 328 332 327 320 317 311 305 305 307 305 298 289 281 279 279 282 204 286 305 309 309 310 310
207 194 187 176 173 180 123 55 12 31 7 29 14 15 5 358 346 339 338 336 340 331 323 322 318 313 304 307 306 315 306 305 299 283 279 288 290 197 360 345 338 329 325
215 202 188 181 185 185 122 61 35 32 18 37 21 6 2 357 349 334 335 340 339 324 326 332 328 321 314 317 319 319 310 308 304 298 298 300 323 317 164 27 354 350 347
217 206 197 193 190 168 130 72 54 25 8 50 3 0 359 353 347 332 337 338 336 324 325 335 333 318 316 324 322 313 313 303 288 302 1 5 38 11 344 57 6 33 3
219 215 201 190 182 160 144 183 194 193 208 300 336 338 331 339 336 338 337 340 335 327 340 345 330 325 321 340 316 306 337 349 90 71 63 73 53 14 3 354 348 25 358
214 203 198 189 174 177 195 216 200 240 252 242 263 275 288 319 322 322 331 327 336 329 340 347 326 326 341 341 336 336 208 134 55 107 120 62 35 18 10 9 7 17 357
208 200 193 190 173 184 188 156 277 292 249 274 259 251 252 286 300 300 308 317 324 322 333 347 331 327 325 354 340 299 311 178 219 83 354 332 10 19 27 7 7 10 25
189 185 185 177 178 180 188 180 209 239 247 246 229 257 254 279 274 273 285 297 304 304 320 324 331 324 319 326 351 331 315 332 339 157 296 330 352 5 38 19 354 2 352
146 159 169 172 180 191 194 213 236 265 270 264 282 283 279 267 263 259 264 273 284 295 305 308 318 295 307 312 319 196 294 314 315 310 297 316 338 346 340 353 346 348 353
132 155 166 175 198 203 212 228 241 254 268 280 277 278 273 265 255 253 250 257 264 273 279 288 292 269 275 280 294 302 296 264 252 267 299 320 332 337 311 339 313 330 338
131 160 182 202 223 220 226 234 247 265 277 280 278 281 282 280 269 252 242 243 247 255 259 272 277 265 264 258 263 269 263 280 300 280 295 310 314 327 328 190 212 262 315